OpenBCM V1.08-5-g2f4a (Linux)

Packet Radio Mailbox

IZ3LSV

[San Dona' di P. JN]

 Login: GUEST





  
CX2SA  > KEPS     30.12.07 23:21l 264 Lines 6918 Bytes #999 (0) @ AMSAT
BID : ORB07361.D
Read: GUEST
Subj: Orbital Elements  07361.MICROS
Path: IZ3LSV<IW2OAZ<CX2SA
Sent: 071228/0251Z @:CX2SA.LAV.URY.SA #:28485 [Minas] FBB7.00e $:ORB07361.D
From: CX2SA@CX2SA.LAV.URY.SA
To  : KEPS@AMSAT


HR AMSAT ORBITAL ELEMENTS FOR THE MICROSATS
FROM WA5QGD FORT WORTH,TX December 27, 2007
Send Subscribe/unsubscribe to KEPS at 
http://www.amsat.org/mailman/listinfo/keps
BID: ORB07361.D
TO ALL RADIO AMATEURS BT

Satellite: LIBERT
Catalog number: 31129
Epoch time:      07360.65473683
Element set:    0618
Inclination:      098.0631 deg
RA of node:       066.2682 deg
Eccentricity:    0.0103170
Arg of perigee:   150.9855 deg
Mean anomaly:     209.7109 deg
Mean motion:   14.51988664 rev/day
Decay rate:       3.39e-06 rev/day^2
Epoch rev:           03673
Checksum:              314

Satellite: CP3
Catalog number: 31128
Epoch time:      07360.67009361
Element set:    0216
Inclination:      098.0638 deg
RA of node:       066.2595 deg
Eccentricity:    0.0103414
Arg of perigee:   150.8983 deg
Mean anomaly:     209.8058 deg
Mean motion:   14.51897780 rev/day
Decay rate:       -4.7e-07 rev/day^2
Epoch rev:           03675
Checksum:              314

Satellite: CP4
Catalog number: 31122
Epoch time:      07360.66923241
Element set:    0222
Inclination:      098.0650 deg
RA of node:       067.5248 deg
Eccentricity:    0.0086480
Arg of perigee:   147.4892 deg
Mean anomaly:     213.1663 deg
Mean motion:   14.55067806 rev/day
Decay rate:       5.51e-06 rev/day^2
Epoch rev:           03684
Checksum:              294

Satellite: NO-61
Catalog number: 29664
Epoch time:      07358.13371241
Element set:     734
Inclination:      051.6139 deg
RA of node:       155.9602 deg
Eccentricity:    0.0003450
Arg of perigee:   326.6914 deg
Mean anomaly:     033.3673 deg
Mean motion:   16.40530205 rev/day
Decay rate:   3.126866e-02 rev/day^2
Epoch rev:            5860
Checksum:              297

Satellite: HO-59
Catalog number: 29484
Epoch time:      07358.06973430
Element set:     972
Inclination:      098.2591 deg
RA of node:       078.7346 deg
Eccentricity:    0.0149580
Arg of perigee:   297.0513 deg
Mean anomaly:     061.5397 deg
Mean motion:   15.67836187 rev/day
Decay rate:     3.8204e-04 rev/day^2
Epoch rev:            7065
Checksum:              363

Satellite: CO-56
Catalog number: 28941
Epoch time:      07358.08077656
Element set:     736
Inclination:      098.1108 deg
RA of node:       081.1721 deg
Eccentricity:    0.0197287
Arg of perigee:   316.9208 deg
Mean anomaly:     041.6714 deg
Mean motion:   15.47579432 rev/day
Decay rate:     1.5645e-04 rev/day^2
Epoch rev:           10272
Checksum:              334

Satellite: AO-51
Catalog number: 28375
Epoch time:      07360.61677485
Element set:    0993
Inclination:      098.0895 deg
RA of node:       029.7863 deg
Eccentricity:    0.0084162
Arg of perigee:   320.0774 deg
Mean anomaly:     039.4251 deg
Mean motion:   14.40591920 rev/day
Decay rate:        1.8e-07 rev/day^2
Epoch rev:           18341
Checksum:              326

Satellite: CO-57
Catalog number: 27848
Epoch time:      07360.93261380
Element set:    0154
Inclination:      098.7169 deg
RA of node:       005.7297 deg
Eccentricity:    0.0009101
Arg of perigee:   261.4394 deg
Mean anomaly:     098.5765 deg
Mean motion:   14.20364822 rev/day
Decay rate:        3.7e-07 rev/day^2
Epoch rev:           23281
Checksum:              318

Satellite: CO-55
Catalog number: 27844
Epoch time:      07360.67582832
Element set:    0198
Inclination:      098.7176 deg
RA of node:       006.3424 deg
Eccentricity:    0.0009054
Arg of perigee:   256.6587 deg
Mean anomaly:     103.3574 deg
Mean motion:   14.20551477 rev/day
Decay rate:        7.2e-07 rev/day^2
Epoch rev:           23280
Checksum:              318

Satellite: SO-50
Catalog number: 27607
Epoch time:      07360.88961036
Element set:    0492
Inclination:      064.5570 deg
RA of node:       219.9154 deg
Eccentricity:    0.0075748
Arg of perigee:   314.3086 deg
Mean anomaly:     045.1818 deg
Mean motion:   14.71314620 rev/day
Decay rate:        9.0e-08 rev/day^2
Epoch rev:           26947
Checksum:              318

Satellite: NO-44
Catalog number: 26931
Epoch time:      07360.49364681
Element set:    0767
Inclination:      067.0519 deg
RA of node:       012.1071 deg
Eccentricity:    0.0004911
Arg of perigee:   259.8130 deg
Mean anomaly:     100.2427 deg
Mean motion:   14.29506212 rev/day
Decay rate:       -5.9e-07 rev/day^2
Epoch rev:           32558
Checksum:              286

Satellite: MO-46
Catalog number: 26548
Epoch time:      07360.88864657
Element set:    0983
Inclination:      064.5585 deg
RA of node:       306.4858 deg
Eccentricity:    0.0008753
Arg of perigee:   346.8560 deg
Mean anomaly:     013.2306 deg
Mean motion:   14.83212519 rev/day
Decay rate:       -2.4e-07 rev/day^2
Epoch rev:           39211
Checksum:              330

Satellite: GO-32
Catalog number: 25397
Epoch time:      07358.06118767
Element set:     483
Inclination:      098.3901 deg
RA of node:       036.7100 deg
Eccentricity:    0.0001931
Arg of perigee:   059.5786 deg
Mean anomaly:     300.5583 deg
Mean motion:   14.23136412 rev/day
Decay rate:       1.03e-06 rev/day^2
Epoch rev:           49116
Checksum:              292

Satellite: PO-28
Catalog number: 22829
Epoch time:      07360.87717398
Element set:    0836
Inclination:      098.3424 deg
RA of node:       324.7566 deg
Eccentricity:    0.0010235
Arg of perigee:   027.3161 deg
Mean anomaly:     332.8556 deg
Mean motion:   14.30175703 rev/day
Decay rate:       -5.4e-07 rev/day^2
Epoch rev:           74335
Checksum:              316

Satellite: IO-26
Catalog number: 22826
Epoch time:      07360.87567614
Element set:    0561
Inclination:      098.3526 deg
RA of node:       323.6202 deg
Eccentricity:    0.0009827
Arg of perigee:   052.3674 deg
Mean anomaly:     307.8395 deg
Mean motion:   14.29473697 rev/day
Decay rate:       -6.0e-08 rev/day^2
Epoch rev:           74310
Checksum:              325

Satellite: AO-27
Catalog number: 22825
Epoch time:      07360.93159015
Element set:    0861
Inclination:      098.3597 deg
RA of node:       322.6840 deg
Eccentricity:    0.0009256
Arg of perigee:   055.7141 deg
Mean anomaly:     304.4947 deg
Mean motion:   14.29226063 rev/day
Decay rate:       -5.4e-07 rev/day^2
Epoch rev:           74302
Checksum:              306

Satellite: LO-19
Catalog number: 20442
Epoch time:      07360.90671197
Element set:    0138
Inclination:      098.1876 deg
RA of node:       354.0070 deg
Eccentricity:    0.0011406
Arg of perigee:   335.7972 deg
Mean anomaly:     024.2668 deg
Mean motion:   14.32019205 rev/day
Decay rate:        1.2e-07 rev/day^2
Epoch rev:           93627
Checksum:              292

Satellite: AO-16
Catalog number: 20439
Epoch time:      07360.90046522
Element set:    0213
Inclination:      098.2120 deg
RA of node:       344.9974 deg
Eccentricity:    0.0010761
Arg of perigee:   338.3759 deg
Mean anomaly:     021.6961 deg
Mean motion:   14.31780022 rev/day
Decay rate:        2.1e-07 rev/day^2
Epoch rev:           93612
Checksum:              278



Read previous mail | Read next mail


 16.12.2025 02:47:13lGo back Go up